Flag for Germany Weather past 2 weeks in Haltern am See, North Rhine-Westphalia, Germany

Now
43 °F

Overcast.


Feels Like: 38 °F
Forecast: 37 / 44 °F
Wind: 9 mph from Southwest

Location: Muenster / Osnabrueck

Current Time: Dec 20, 2014 at 3:41:19 AM

Latest Report: Dec 20, 2014 at 3:00 AM


Visibility: 19 mi

Pressure: 30.04 "Hg

Humidity: 78%

Dew point: 36 °F

Location of Haltern am SeeLocation

Historic Weather in Haltern am See — Graph

°F

Haltern am See temperature yesterday

Maximum temperature yesterday: 53 °F (at 12:00 AM)
Minimum temperature yesterday: 44 °F (at 11:00 PM)
Average temperature yesterday: 49 °F

Past Weeks' High & Low Weather Summary

 TemperatureHumidityPressure
High54 °F (Dec 18, 7:00 PM)99% (Dec 7, 1:00 AM)30.37 "Hg (Dec 7, 1:00 AM)
Low34 °F (Dec 14, 10:00 PM)67% (Dec 7, 3:00 PM)29.32 "Hg (Dec 12, 2:00 PM)
Average42 °F87%29.91 "Hg
* Reported Dec 5 2:00 AM — Dec 20 2:00 AM, Haltern am See, Weather by CustomWeather, © 2014

Note: Actual official high and low records may vary slightly from our data, if they occured in-between our weather recording intervals... More about our weather records

Advertising

Haltern am See weather history for previous 24 hours

 ConditionsComfort  
Time TempWeatherWind HumidityBarometerVisibility
2:00 AM
Dec 20
43 °FPassing clouds.9 mph77%30.03 "Hg19 mi
1:00 AM42 °FPassing clouds.8 mph79%30.03 "Hg19 mi
12:00 AM43 °FPassing clouds.8 mph77%30.01 "Hg19 mi
11:00 PM
Dec 19
44 °FPassing clouds.8 mph78%30.01 "Hg19 mi
10:00 PM44 °FPassing clouds.8 mph75%30.00 "Hg19 mi
9:00 PM44 °FPassing clouds.7 mph77%29.98 "Hg19 mi
8:00 PM44 °FPassing clouds.6 mph78%29.98 "Hg16 mi
7:00 PM45 °FPassing clouds.7 mph77%29.93 "Hg19 mi
6:00 PM45 °FPassing clouds.8 mph75%29.91 "Hg22 mi
5:00 PM45 °FOvercast.6 mph76%29.88 "Hg28 mi
4:00 PM46 °FPartly sunny.7 mph74%29.86 "Hg28 mi
3:00 PM47 °FOvercast.7 mph78%29.83 "Hg25 mi
2:00 PM47 °FOvercast.5 mph85%29.80 "Hg19 mi
1:00 PM48 °FLight rain. Overcast.6 mph87%29.80 "Hg12 mi
12:00 PM51 °FLight rain. Low clouds.7 mph94%29.76 "Hg3 mi
11:00 AM52 °FLight rain. Overcast.9 mph91%29.73 "Hg4 mi
10:00 AM52 °FLight rain. Low clouds.9 mph92%29.73 "Hg4 mi
9:00 AM52 °FRain. Low clouds.9 mph93%29.73 "Hg3 mi
8:00 AM52 °FRain. Low clouds.8 mph94%29.73 "Hg4 mi
7:00 AM53 °FRain. Low clouds.9 mph91%29.75 "Hg3 mi
6:00 AM52 °FRain. Low clouds.8 mph93%29.75 "Hg4 mi
5:00 AM52 °FRain. Low clouds.8 mph94%29.77 "Hg4 mi
4:00 AM53 °FRain. Low clouds.9 mph93%29.79 "Hg4 mi
3:00 AM53 °FRain. Low clouds.8 mph93%29.80 "Hg4 mi
Weather by CustomWeather, © 2014

See weather overviewHow to use our weather pages